Home   Weather   Mesquite   Past weeks

Flag for USA Past Weather in Mesquite, Texas, USA — Yesterday and Last 2 Weeks

72 °F


Feels Like: 72 °F
Forecast: 61 / 82 °F
Wind: 9 mph from Southeast

Location: Mesquite Metro Airport

Current Time: Oct 26, 2016 at 2:09:41 PM

Latest Report: Oct 26, 2016 at 10:50 AM

Visibility: 10 mi

Pressure: 30.17 "Hg

Humidity: 78%

Dew Point: 64 °F

Location of MesquiteLocation

Past Weather in Mesquite — Graph


Mesquite Temperature Yesterday

Maximum temperature yesterday: 81 °F (at 3:50 PM)
Minimum temperature yesterday: 57 °F (at 4:15 AM)
Average temperature yesterday: 65 °F

High & Low Weather Summary for the Past Weeks

High91 °F (Oct 18, 1:50 PM)100% (Oct 12, 6:50 AM)30.31 "Hg (Oct 12, 6:50 AM)
Low44 °F (Oct 22, 6:35 AM)27% (Oct 21, 2:50 PM)29.72 "Hg (Oct 17, 5:50 PM)
Average68 °F79%30.07 "Hg
* Reported Oct 11 10:50 AM — Oct 26 10:50 AM, Mesquite, Weather by CustomWeather, © 2016

Note: Actual official high and low records may vary slightly from our data, if they occured in-between our weather recording intervals... More about our weather records


Mesquite Weather History for the Previous 24 Hours

Scroll right to see more
Time TempWeatherWind HumidityBarometerVisibility
10:50 AM
Wed, Oct 26
72 °FSunny.9 mph78%30.17 "Hg10 mi
9:50 AM66 °FPartly sunny.6 mph94%30.17 "Hg10 mi
9:00 AM63 °FPartly sunny.6 mph100%30.16 "Hg7 mi
7:50 AM57 °FSunny.3 mph100%30.12 "Hg7 mi
6:50 AM57 °FClear.6 mph100%30.11 "Hg10 mi
6:35 AM57 °FClear.6 mph99%30.11 "Hg10 mi
6:15 AM58 °FClear.5 mph97%30.11 "Hg10 mi
5:55 AM58 °FClear.6 mph96%30.11 "Hg10 mi
5:35 AM57 °FClear.5 mph95%30.11 "Hg10 mi
5:15 AM57 °FClear.5 mph94%30.11 "Hg10 mi
4:55 AM58 °FClear.5 mph94%30.12 "Hg10 mi
4:35 AM58 °FClear.5 mph94%30.11 "Hg10 mi
4:15 AM58 °FClear.5 mph94%30.12 "Hg10 mi
3:55 AM58 °FClear.3 mph94%30.12 "Hg10 mi
3:35 AM58 °FClear.5 mph97%30.12 "Hg10 mi
3:15 AM59 °FClear.3 mph98%30.12 "Hg10 mi
2:55 AM59 °FClear.5 mph100%30.13 "Hg10 mi
2:35 AM59 °FClear.5 mph100%30.13 "Hg10 mi
2:15 AM60 °FClear.5 mph99%30.13 "Hg10 mi
1:55 AM60 °FClear.5 mph98%30.13 "Hg10 mi
1:35 AM61 °FClear.No wind99%30.14 "Hg10 mi
1:15 AM60 °FClear.No wind96%30.14 "Hg10 mi
12:55 AM62 °FClear.No wind95%30.13 "Hg10 mi
12:35 AM62 °FClear.3 mph93%30.14 "Hg10 mi
12:15 AM63 °FClear.3 mph91%30.14 "Hg10 mi
11:55 PM
Tue, Oct 25
63 °FClear.5 mph89%30.14 "Hg10 mi
11:35 PM64 °FClear.5 mph88%30.15 "Hg10 mi
11:15 PM65 °FClear.6 mph85%30.15 "Hg10 mi
10:55 PM66 °FClear.6 mph83%30.15 "Hg10 mi
10:35 PM67 °FClear.6 mph82%30.15 "Hg10 mi
10:15 PM67 °FClear.5 mph79%30.14 "Hg10 mi
9:55 PM68 °FClear.6 mph75%30.13 "Hg10 mi
9:35 PM69 °FClear.7 mph73%30.13 "Hg10 mi
9:15 PM70 °FClear.9 mph70%30.13 "Hg10 mi
7:50 PM72 °FClear.6 mph65%30.12 "Hg10 mi
6:50 PM73 °FClear.7 mph61%30.11 "Hg10 mi
5:50 PM77 °FSunny.8 mph57%30.10 "Hg10 mi
4:50 PM81 °FSunny.9 mph48%30.11 "Hg10 mi
3:50 PM81 °FScattered clouds.9 mph48%30.12 "Hg10 mi
2:50 PM79 °FPartly sunny.7 mph54%30.14 "Hg10 mi
Weather by CustomWeather, © 2016

See weather overviewHow to use our weather pages